TimeCDT,TemperatureF,Dew PointF,Humidity,Sea Level PressureIn,VisibilityMPH,Wind Direction,Wind SpeedMPH,Gust SpeedMPH,PrecipitationIn,Events,Conditions,WindDirDegrees,DateUTC
12:53 AM,71.1,64.0,78,29.98,10.0,South,12.7,18.4,N/A,,Clear,180,2012-10-14 05:53:00
1:53 AM,71.1,64.0,78,29.96,10.0,South,11.5,20.7,N/A,,Clear,170,2012-10-14 06:53:00
2:53 AM,71.1,64.0,78,29.96,10.0,South,9.2,-,N/A,,Clear,180,2012-10-14 07:53:00
3:53 AM,69.1,64.0,84,29.96,10.0,South,8.1,-,N/A,,Clear,190,2012-10-14 08:53:00
4:53 AM,70.0,64.0,81,29.97,10.0,South,10.4,-,N/A,,Partly Cloudy,190,2012-10-14 09:53:00
5:37 AM,69.8,64.4,83,29.99,10.0,South,11.5,17.3,N/A,,Mostly Cloudy,190,2012-10-14 10:37:00
5:53 AM,69.1,64.0,84,29.98,10.0,South,11.5,-,N/A,,Overcast,190,2012-10-14 10:53:00
6:20 AM,69.8,64.4,83,29.99,10.0,South,10.4,20.7,N/A,,Mostly Cloudy,170,2012-10-14 11:20:00
6:53 AM,69.1,64.0,84,29.97,10.0,South,13.8,21.9,N/A,,Mostly Cloudy,180,2012-10-14 11:53:00
7:26 AM,69.8,64.4,83,30.00,4.0,SW,12.7,-,0.04,Rain,Rain,230,2012-10-14 12:26:00
7:37 AM,68.0,64.4,88,29.99,10.0,SSW,10.4,-,0.05,Rain,Light Rain,210,2012-10-14 12:37:00
7:53 AM,68.0,64.9,90,30.00,1.2,SW,10.4,-,0.17,Rain,Heavy Rain,220,2012-10-14 12:53:00
7:59 AM,68.0,66.2,94,30.00,2.0,SSW,10.4,20.7,0.01,Rain,Rain,200,2012-10-14 12:59:00
8:01 AM,68.0,66.2,94,30.00,3.0,South,10.4,20.7,0.01,Rain,Rain,190,2012-10-14 13:01:00
8:53 AM,66.9,64.0,90,30.00,9.0,South,16.1,24.2,0.07,Rain,Light Rain,190,2012-10-14 13:53:00
9:53 AM,66.0,62.1,87,29.91,10.0,South,17.3,23.0,0.01,,Mostly Cloudy,180,2012-10-14 14:53:00
10:53 AM,66.9,63.0,87,29.95,10.0,SSW,15.0,21.9,0.00,,Clear,200,2012-10-14 15:53:00
11:53 AM,69.1,63.0,81,29.94,10.0,SSW,12.7,20.7,N/A,,Clear,210,2012-10-14 16:53:00
12:53 PM,71.1,63.0,75,29.92,10.0,SSW,15.0,27.6,N/A,,Clear,210,2012-10-14 17:53:00
1:51 PM,71.6,62.6,73,29.92,10.0,SW,18.4,27.6,N/A,,Overcast,220,2012-10-14 18:51:00
1:53 PM,72.0,63.0,73,29.91,10.0,SSW,17.3,27.6,N/A,,Overcast,210,2012-10-14 18:53:00
2:05 PM,71.6,62.6,73,29.91,10.0,SW,16.1,24.2,N/A,,Overcast,220,2012-10-14 19:05:00
2:33 PM,73.4,62.6,69,29.89,10.0,SW,21.9,32.2,N/A,,Overcast,230,2012-10-14 19:33:00
2:53 PM,73.9,63.0,68,29.88,10.0,WSW,21.9,32.2,N/A,,Overcast,240,2012-10-14 19:53:00
3:53 PM,73.9,63.0,68,29.88,10.0,SW,19.6,26.5,N/A,,Overcast,230,2012-10-14 20:53:00
4:53 PM,73.9,63.0,68,29.89,10.0,SW,16.1,27.6,N/A,,Mostly Cloudy,230,2012-10-14 21:53:00
5:53 PM,72.0,63.0,73,29.90,10.0,SW,10.4,-,N/A,,Mostly Cloudy,220,2012-10-14 22:53:00
6:53 PM,68.0,64.0,87,29.91,10.0,WSW,5.8,-,0.00,,Scattered Clouds,240,2012-10-14 23:53:00
7:53 PM,64.0,61.0,90,29.92,10.0,SW,5.8,-,N/A,,Clear,220,2012-10-15 00:53:00
8:53 PM,66.9,61.0,81,29.95,10.0,WNW,3.5,-,N/A,,Scattered Clouds,300,2012-10-15 01:53:00
9:53 PM,59.0,59.0,100,29.96,5.0,Calm,Calm,-,N/A,,Clear,0,2012-10-15 02:53:00
10:53 PM,61.0,57.0,87,29.96,10.0,WNW,3.5,-,N/A,,Clear,290,2012-10-15 03:53:00
11:53 PM,57.9,55.0,90,29.96,10.0,SW,3.5,-,N/A,,Clear,230,2012-10-15 04:53:00